Cosmos 405 Rocket - Orbit

View from above orbital plane
View from above orbital plane
View from above satellite
View from above satellite

Ground track
Ground track

The orbit data is extracted from the following two-line orbital elements,

1 05118U 71028B   13144.43624556  .00001986  00000-0  13144-3 0  2893
2 05118 081.2382 050.3377 0045790 168.9011 191.3234 15.06018944280075
Epoch (UTC): 24 May 2013 10:28:11
Eccentricity: 0.0045790
inclination: 81.2382°
perigee height: 516 km
apogee height: 580 km
right ascension of ascending node: 50.3377°
argument of perigee: 168.9011°
revolutions per day: 15.06018944
mean anomaly at epoch: 191.3234°
orbit number at epoch: 28007

The dashed part of the orbit path shows where the satellite is in the earth's shadow,  

Developed and maintained by Chris Peat, Heavens-Above GmbH. Please read the updated FAQ before sending e-mail. Imprint. DLR